Location: Oberkirch
(48.5323°N, 8.0787°E)
Time: 06:58:01
(UTC+00:00)

Cosmos 2242 Rocket - Pass Details

Date: 08 November 2025
Orbit: 614 x 644 km, 82.5° (Epoch: 12 December)

Event Time Altitude Azimuth Distance (km) Brightness Sun altitude
Rises 05:27:31 0° 187° (S) 2,871 7.1 -9.8°
Reaches altitude 10° 05:29:43 10° 188° (S) 1,971 6.2 -9.4°
Maximum altitude 05:34:05 89° 109° (ESE) 624 3.6 -8.7°
Drops below altitude 10° 05:38:31 10° 10° (N) 1,997 6.1 -8.0°
Sets 05:40:46 0° 10° (N) 2,912 6.9 -7.7°
